Wind_Speed
21 24 17 23 28 35 33 28 23 16 14 18 23 29 37 43 51 59 67 76 83 76 54 48 40 28 21 19 14 16 19 26 37 50 57 66 77 86 97 103 105 103 96 92 86 87 82
21 12 16 24 29 34 31 25 26 20 19 22 27 33 39 45 52 60 67 76 84 78 55 45 42 31 24 17 11 10 15 22 33 46 55 62 72 80 93 97 103 101 95 90 91 90 85
8 10 18 24 28 32 32 25 25 23 23 25 29 35 39 45 52 59 67 76 84 80 58 47 42 34 27 22 12 3 10 20 31 40 47 60 65 74 88 94 99 100 96 94 95 92 86
7 12 20 24 27 30 32 32 26 22 21 26 30 34 39 45 52 58 64 73 83 83 65 53 46 35 29 23 14 6 5 14 25 36 44 49 61 69 82 89 97 99 102 98 96 92 87
7 13 18 24 27 30 33 34 34 26 22 25 29 34 38 43 50 57 62 71 81 86 76 60 54 42 35 27 19 11 6 10 18 28 36 45 56 63 74 87 96 101 101 100 96 90 85
7 13 17 22 26 32 32 35 36 32 25 26 29 33 38 42 48 55 62 69 79 89 83 69 61 50 35 28 22 15 12 11 15 22 32 40 48 59 71 87 93 96 97 98 95 88 82
9 13 17 20 25 30 31 34 36 36 31 28 32 34 38 42 46 51 58 66 76 85 86 72 65 57 49 33 26 21 13 12 20 23 27 36 46 59 74 89 92 95 94 96 93 86 81
8 13 16 18 24 27 30 34 36 37 37 36 36 38 38 41 45 49 55 63 70 79 87 79 70 62 56 47 32 22 12 9 16 23 31 38 48 61 77 88 94 96 96 96 94 86 81
10 11 14 19 24 24 29 35 36 36 37 37 39 41 42 44 46 49 54 59 65 72 79 84 76 65 56 54 42 27 18 10 14 22 31 42 51 61 79 87 94 94 94 94 90 84 81
10 11 14 19 24 25 26 32 34 35 37 38 40 41 44 44 46 49 54 57 62 66 72 78 85 72 56 50 47 34 24 15 10 21 31 41 51 62 77 85 91 91 93 93 89 85 80
20 16 16 19 22 21 26 26 31 33 36 36 39 40 43 44 46 48 52 57 61 64 68 74 79 84 69 56 48 38 28 20 11 16 30 41 50 62 76 84 88 90 92 90 85 82 79
20 20 18 21 21 23 28 24 29 31 34 33 35 40 41 41 43 46 50 54 59 61 66 72 76 78 79 65 52 43 33 25 15 13 27 38 50 63 76 82 86 89 90 88 83 81 77
20 20 20 21 24 27 31 24 28 30 31 31 33 34 38 39 40 43 46 50 56 59 61 67 73 79 80 78 65 49 36 30 20 13 18 33 49 64 75 81 84 86 85 83 82 79 73
27 27 27 20 26 28 30 27 28 28 29 28 31 32 34 36 38 39 40 45 51 54 60 63 68 71 76 82 79 63 44 33 26 19 14 31 47 60 72 78 80 82 82 81 79 75 71
28 28 26 24 27 26 28 26 27 26 27 28 29 31 32 34 34 37 38 42 44 49 53 58 62 66 71 74 78 81 62 42 32 25 17 26 45 58 67 73 75 77 77 78 77 74 71
31 30 26 27 26 27 28 27 28 24 26 27 28 28 29 30 31 33 34 38 40 44 47 51 56 60 64 68 72 74 79 61 41 32 21 21 39 52 60 66 70 72 73 74 73 71 69
35 33 34 31 27 27 27 27 26 22 22 25 25 26 28 28 28 30 31 33 36 40 42 46 49 53 58 60 63 66 69 71 64 39 30 16 28 40 50 57 61 64 67 66 67 65 62
35 36 35 33 28 29 28 26 23 23 22 21 22 23 24 25 24 26 28 31 33 36 39 42 44 46 49 51 55 58 60 62 62 66 42 27 14 26 37 43 45 48 51 53 53 54 56
37 37 37 34 31 29 28 22 23 22 22 20 20 21 23 21 20 22 25 29 30 33 34 35 38 40 43 45 46 48 51 52 53 53 51 51 27 12 12 21 25 31 36 38 40 43 47
39 41 42 40 36 34 28 26 23 22 20 19 20 21 24 24 21 21 26 31 32 35 35 36 37 38 39 40 41 40 40 41 43 43 41 40 41 36 18 8 10 20 29 35 38 40 42
43 46 44 43 42 38 32 29 26 24 24 21 22 22 23 25 24 23 27 29 33 34 33 34 34 35 37 38 37 37 36 34 33 32 33 31 26 25 24 21 15 4 16 28 34 40 47
45 47 47 47 45 44 39 35 32 28 28 26 24 23 23 26 25 26 26 29 30 33 31 31 32 33 34 34 34 34 33 32 31 28 25 24 22 19 14 8 7 13 10 10 10 13 26
52 50 50 51 49 45 46 41 39 36 33 31 28 26 26 24 24 24 27 28 30 32 32 31 32 33 34 34 33 33 34 32 31 30 27 23 22 20 18 17 18 18 20 21 20 20 25
59 57 57 55 50 48 48 47 45 43 40 38 34 31 28 28 29 27 29 26 30 32 34 34 32 31 32 32 33 32 31 33 35 34 34 32 29 26 24 25 28 27 27 30 33 37 38
65 62 59 56 52 52 51 51 51 49 50 46 42 38 36 34 30 31 35 36 33 32 33 36 37 37 36 35 34 35 35 36 37 39 39 39 39 39 39 38 35 35 37 37 39 40 43
70 67 63 62 58 57 60 57 58 57 55 52 50 46 45 44 42 39 37 39 40 41 39 37 38 41 43 43 41 40 39 38 39 44 45 44 44 45 47 48 48 51 51 50 50 47 51
73 72 69 67 66 64 63 64 64 62 61 58 57 56 55 53 52 51 50 49 49 50 49 48 47 46 45 47 48 48 47 48 48 48 49 49 48 50 52 54 55 58 60 60 57 59 62
79 79 76 75 75 71 68 68 68 68 66 66 64 63 63 61 59 59 58 59 56 56 55 52 53 56 53 53 57 53 50 54 53 53 57 57 59 57 61 62 62 63 65 66 67 68 69
85 85 82 81 81 79 77 74 75 75 72 70 71 68 68 68 68 66 66 65 63 61 60 62 65 66 66 67 69 64 61 60 63 63 66 64 65 66 65 67 66 67 69 71 73 77 78
Wind_Direction
301 314 327 335 341 346 343 350 357 2 356 343 336 336 341 343 343 342 343 345 346 349 347 337 340 337 335 320 293 261 232 220 213 205 204 206 206 206 207 204 204 202 203 204 205 211 213
308 331 341 343 352 353 348 343 347 343 338 338 338 339 345 346 347 346 348 352 352 354 356 352 350 356 355 341 313 260 229 212 207 206 205 203 206 206 205 203 200 198 200 200 203 207 211
322 340 347 354 356 358 358 343 339 339 336 337 339 341 346 348 349 349 352 357 358 359 4 6 5 4 3 357 353 272 215 204 201 201 203 203 203 203 202 199 196 194 195 199 202 205 210
309 344 357 1 2 360 1 2 347 337 338 343 343 343 347 351 350 352 356 1 4 3 11 13 16 17 19 13 19 33 181 193 195 197 204 202 200 199 199 194 192 191 194 196 200 204 208
317 352 3 4 2 1 359 4 3 354 347 350 349 349 349 352 352 355 0 5 8 10 12 18 20 22 23 23 30 47 111 161 183 193 198 196 198 197 194 191 190 189 193 196 199 203 207
315 346 360 2 5 0 4 4 7 7 358 352 352 351 351 355 356 359 3 9 13 16 13 18 22 27 31 26 34 53 94 131 158 180 185 189 195 193 190 187 187 186 190 195 198 202 206
336 352 358 1 4 3 8 8 7 10 6 355 350 352 354 357 360 3 8 13 18 21 20 20 24 26 31 36 43 40 65 115 144 157 169 181 182 186 186 182 182 182 188 192 196 201 205
331 347 355 355 357 359 1 4 3 5 8 6 0 359 0 360 2 7 11 15 21 23 25 25 27 30 30 34 34 47 57 106 141 154 166 172 178 180 182 180 180 180 187 192 195 199 203
300 337 344 342 347 352 353 359 360 1 5 6 6 8 7 6 8 11 14 18 21 26 28 30 31 33 34 32 34 36 57 76 139 159 169 173 174 177 179 179 179 182 186 190 194 198 203
277 311 324 334 340 342 348 348 353 356 360 360 2 5 4 6 10 11 14 20 23 25 29 32 34 33 36 36 34 35 37 62 105 156 166 171 173 173 177 178 179 183 186 190 194 199 203
267 287 313 318 324 337 339 342 347 354 358 356 358 2 4 6 10 12 15 18 23 24 26 31 35 36 33 35 32 38 40 54 87 154 165 170 171 174 176 178 180 184 187 191 196 200 204
268 280 308 311 313 327 333 334 341 349 353 351 352 358 2 5 10 13 17 18 21 24 27 30 32 35 38 37 35 36 44 50 79 149 167 170 171 175 177 178 181 184 188 192 197 202 205
277 289 297 298 303 317 328 330 334 341 346 347 348 355 357 1 6 10 17 19 20 21 27 31 32 32 33 39 39 41 46 51 69 105 165 168 173 175 177 179 182 186 190 194 199 201 205
276 289 294 286 300 313 323 324 328 333 339 344 348 352 358 358 1 8 15 20 20 21 23 27 31 33 33 31 38 42 47 54 68 89 132 170 171 175 178 181 185 188 191 196 200 204 207
275 278 285 292 302 306 316 315 325 332 332 339 345 347 351 354 357 4 11 17 18 19 21 22 26 30 31 34 32 36 44 51 63 81 111 165 174 176 180 184 187 191 195 198 202 206 211
276 277 278 288 297 300 309 310 319 328 331 334 339 346 351 355 1 5 7 12 16 17 19 22 24 26 28 32 35 35 36 44 54 67 94 153 176 181 184 187 191 194 198 201 206 211 215
271 272 280 286 289 295 304 308 314 326 333 332 336 340 349 358 1 2 4 12 14 17 22 24 25 27 27 27 30 35 36 39 44 57 73 120 173 185 189 192 195 200 202 206 211 217 220
267 272 273 277 281 291 297 298 309 319 330 331 335 338 348 355 0 3 5 7 11 12 15 17 20 23 25 26 26 28 32 37 39 45 54 81 143 185 195 198 201 206 212 216 221 226 230
264 267 266 272 277 283 292 292 294 305 321 329 333 332 338 345 356 357 357 0 5 5 6 9 14 17 19 22 25 26 28 29 36 36 39 52 74 130 192 201 208 213 218 224 230 236 240
257 266 265 269 276 279 278 288 283 293 306 317 326 332 335 335 336 342 339 345 350 355 359 0 2 5 8 10 14 19 25 26 27 31 36 36 42 59 87 134 216 229 230 234 241 247 251
266 261 266 268 273 274 269 274 280 287 290 302 310 321 326 327 329 329 337 342 345 345 349 355 359 2 6 7 10 10 11 15 19 22 24 29 36 36 38 44 53 60 247 245 245 248 251
267 271 270 267 269 270 262 265 272 278 286 290 292 306 313 321 319 322 327 335 335 338 340 347 348 350 353 356 358 3 5 5 6 6 9 9 12 12 17 16 359 353 331 316 301 279 267
263 266 267 270 271 267 262 260 267 273 277 283 287 291 300 307 315 321 326 328 329 333 333 330 335 340 342 341 344 346 347 348 349 349 349 349 344 342 337 327 319 310 310 301 300 289 281
259 262 264 266 265 264 264 259 265 270 275 278 281 279 287 292 293 303 314 316 320 322 325 322 321 325 328 329 331 334 336 335 333 332 330 329 328 324 318 313 307 303 296 294 294 295 294
258 258 260 263 263 260 260 261 264 268 274 274 274 276 279 280 286 292 293 300 305 309 311 314 312 315 317 320 315 315 318 320 319 318 319 320 317 314 312 311 306 297 297 292 287 282 282
255 256 258 261 260 259 260 262 265 266 268 269 273 273 274 278 278 281 284 289 295 297 299 309 313 312 312 312 307 306 306 310 311 311 307 307 309 307 305 304 303 301 300 297 293 289 280
253 255 255 257 258 261 263 263 265 266 268 268 271 273 275 275 279 283 283 286 289 293 296 297 300 304 307 306 306 303 302 302 304 302 304 300 301 303 300 300 300 299 298 295 290 288 287
254 253 255 255 257 258 258 261 264 265 266 268 270 272 274 276 276 279 280 284 287 292 291 290 292 294 295 299 305 303 303 305 304 300 299 299 296 299 299 297 296 296 293 291 288 289 288
257 258 253 253 256 258 259 260 262 265 265 266 269 271 273 276 278 279 280 282 282 284 287 290 292 291 292 295 297 302 302 302 303 303 301 298 294 297 297 300 300 298 295 292 289 286 283
Height
10744 10741 10739 10735 10728 10720 10711 10704 10698 10694 10689 10686 10682 10678 10671 10661 10648 10631 10612 10586 10552 10523 10496 10473 10456 10443 10431 10423 10420 10417 10418 10422 10430 10438 10445 10457 10472 10489 10512 10539 10569 10603 10634 10663 10683 10691 10704
10741 10739 10737 10731 10724 10717 10710 10704 10699 10694 10689 10684 10679 10673 10666 10655 10642 10625 10605 10579 10547 10518 10492 10470 10452 10439 10428 10421 10416 10413 10414 10418 10426 10434 10442 10453 10466 10484 10503 10532 10559 10595 10626 10653 10666 10679 10692
10738 10737 10734 10729 10722 10716 10709 10702 10697 10692 10687 10681 10674 10668 10661 10651 10638 10622 10600 10576 10545 10517 10491 10470 10452 10439 10427 10420 10415 10413 10414 10417 10422 10431 10441 10448 10465 10480 10500 10524 10555 10587 10618 10636 10653 10669 10685
10736 10735 10731 10727 10721 10715 10708 10701 10694 10689 10684 10678 10672 10665 10657 10647 10633 10620 10599 10576 10549 10519 10494 10471 10455 10442 10430 10422 10417 10415 10415 10418 10423 10431 10438 10450 10463 10476 10497 10524 10550 10578 10602 10624 10645 10663 10679
10734 10732 10729 10725 10720 10715 10707 10700 10693 10686 10682 10677 10670 10662 10653 10644 10631 10617 10600 10577 10553 10521 10497 10476 10460 10447 10434 10426 10421 10418 10419 10421 10425 10432 10440 10452 10465 10480 10500 10521 10544 10567 10598 10623 10641 10660 10678
10732 10730 10727 10723 10719 10713 10707 10700 10693 10686 10681 10676 10669 10661 10652 10643 10631 10616 10599 10580 10556 10527 10501 10479 10465 10453 10444 10432 10427 10424 10423 10424 10427 10434 10443 10455 10469 10484 10500 10521 10547 10573 10598 10620 10640 10657 10676
10730 10728 10725 10722 10718 10713 10708 10701 10693 10688 10681 10675 10668 10661 10652 10642 10631 10618 10603 10585 10562 10541 10514 10491 10474 10462 10451 10443 10435 10430 10430 10429 10431 10438 10446 10455 10467 10483 10501 10521 10544 10570 10595 10619 10639 10656 10672
10727 10725 10723 10720 10717 10713 10708 10702 10695 10688 10682 10675 10668 10661 10653 10643 10632 10619 10605 10589 10571 10553 10531 10507 10487 10471 10462 10454 10446 10442 10441 10440 10441 10445 10449 10457 10467 10483 10503 10523 10546 10567 10590 10613 10630 10649 10665
10724 10723 10721 10718 10715 10712 10707 10703 10696 10689 10683 10676 10669 10662 10653 10644 10634 10622 10610 10595 10579 10561 10546 10527 10505 10487 10476 10466 10459 10454 10451 10451 10451 10453 10457 10463 10474 10489 10507 10528 10549 10569 10590 10611 10632 10649 10660
10721 10720 10718 10716 10713 10710 10706 10702 10696 10690 10683 10677 10670 10663 10655 10646 10637 10627 10615 10603 10589 10573 10558 10540 10521 10506 10492 10482 10471 10464 10460 10460 10462 10463 10468 10475 10483 10497 10516 10534 10554 10573 10593 10610 10627 10643 10656
10717 10716 10715 10713 10710 10708 10704 10701 10696 10690 10684 10678 10671 10665 10658 10649 10641 10631 10621 10610 10596 10585 10572 10552 10535 10520 10505 10492 10484 10476 10473 10470 10471 10474 10479 10485 10496 10507 10523 10541 10560 10577 10595 10613 10629 10642 10655
10712 10713 10712 10710 10707 10705 10702 10699 10695 10690 10684 10679 10673 10667 10660 10653 10644 10636 10626 10616 10604 10595 10582 10568 10552 10537 10522 10509 10496 10487 10482 10480 10480 10484 10488 10495 10503 10516 10531 10548 10565 10581 10598 10614 10629 10643 10655
10707 10708 10708 10706 10704 10702 10699 10697 10694 10690 10684 10679 10674 10669 10663 10656 10649 10640 10632 10622 10612 10604 10594 10580 10567 10551 10538 10524 10512 10501 10495 10492 10491 10495 10501 10507 10514 10525 10540 10556 10571 10587 10604 10618 10630 10643 10656
10703 10703 10702 10702 10701 10700 10697 10694 10692 10688 10684 10679 10674 10670 10665 10658 10651 10645 10638 10630 10621 10613 10601 10590 10579 10568 10556 10542 10529 10517 10509 10505 10503 10505 10511 10519 10527 10538 10551 10565 10580 10595 10608 10622 10634 10645 10655
10698 10698 10698 10698 10697 10696 10695 10691 10689 10687 10683 10679 10674 10670 10665 10660 10654 10648 10642 10634 10628 10620 10611 10600 10591 10582 10572 10562 10550 10538 10527 10521 10518 10518 10523 10532 10541 10550 10563 10576 10590 10601 10615 10625 10634 10643 10653
10694 10693 10693 10694 10693 10692 10691 10688 10686 10684 10680 10677 10674 10670 10666 10660 10656 10651 10645 10639 10633 10627 10619 10610 10602 10595 10587 10578 10570 10560 10551 10541 10536 10535 10538 10546 10555 10564 10575 10585 10597 10607 10619 10629 10637 10645 10654
10688 10688 10687 10689 10689 10688 10687 10685 10683 10681 10678 10675 10672 10669 10665 10660 10657 10653 10649 10643 10638 10632 10626 10620 10613 10606 10600 10594 10587 10580 10574 10566 10559 10555 10555 10562 10572 10581 10590 10600 10609 10619 10626 10636 10644 10650 10656
10681 10682 10682 10682 10684 10683 10682 10681 10680 10678 10676 10673 10671 10668 10664 10660 10657 10654 10650 10646 10641 10636 10632 10626 10622 10617 10612 10608 10602 10597 10592 10589 10582 10581 10578 10578 10585 10595 10604 10613 10622 10630 10638 10645 10650 10655 10658
10673 10674 10674 10675 10677 10678 10677 10676 10675 10674 10673 10670 10668 10666 10663 10660 10658 10655 10652 10648 10644 10639 10635 10631 10627 10624 10620 10617 10614 10611 10607 10605 10604 10601 10598 10599 10600 10608 10616 10624 10631 10637 10642 10647 10650 10653 10655
10664 10665 10667 10668 10669 10671 10671 10671 10670 10669 10668 10667 10665 10663 10662 10660 10657 10655 10652 10649 10645 10642 10638 10634 10631 10628 10625 10623 10621 10620 10620 10618 10616 10616 10617 10615 10616 10619 10621 10627 10632 10636 10640 10643 10646 10647 10647
10655 10656 10658 10659 10661 10663 10664 10665 10664 10664 10663 10662 10661 10660 10659 10657 10655 10653 10650 10648 10646 10643 10640 10638 10635 10631 10629 10627 10626 10625 10624 10625 10625 10625 10626 10628 10629 10630 10630 10632 10633 10635 10636 10637 10638 10638 10638
10644 10646 10648 10650 10652 10653 10655 10655 10656 10657 10657 10656 10656 10655 10655 10654 10652 10650 10648 10647 10645 10643 10640 10638 10637 10635 10633 10631 10629 10627 10626 10626 10627 10628 10630 10631 10633 10634 10636 10636 10636 10635 10634 10633 10632 10631 10630
10631 10634 10637 10639 10640 10643 10645 10646 10647 10648 10649 10649 10648 10649 10649 10649 10647 10646 10645 10643 10642 10640 10639 10637 10636 10633 10632 10630 10629 10628 10628 10627 10627 10627 10628 10629 10629 10631 10632 10632 10633 10632 10631 10630 10630 10629 10626
10618 10620 10624 10627 10629 10631 10634 10635 10637 10638 10639 10640 10641 10641 10641 10642 10641 10640 10639 10638 10637 10636 10634 10633 10632 10632 10631 10629 10628 10626 10625 10624 10624 10624 10624 10624 10625 10625 10626 10626 10623 10623 10623 10623 10621 10619 10616
10603 10607 10610 10613 10615 10619 10622 10624 10626 10628 10628 10630 10631 10631 10631 10631 10632 10632 10631 10631 10630 10630 10629 10627 10626 10625 10625 10625 10624 10622 10621 10619 10618 10617 10616 10616 10616 10617 10615 10615 10617 10613 10612 10610 10608 10608 10604
10587 10592 10596 10599 10602 10605 10607 10610 10613 10615 10617 10617 10619 10620 10620 10621 10621 10622 10622 10621 10621 10621 10620 10620 10618 10617 10616 10616 10616 10616 10616 10615 10614 10610 10608 10607 10605 10604 10603 10602 10602 10599 10597 10594 10592 10593 10587
10571 10575 10580 10583 10586 10590 10592 10595 10598 10600 10601 10603 10605 10606 10607 10608 10608 10609 10610 10610 10610 10610 10610 10608 10608 10607 10607 10607 10606 10605 10605 10603 10603 10601 10598 10596 10595 10592 10588 10587 10586 10583 10581 10578 10575 10572 10568
10552 10558 10563 10567 10569 10572 10576 10579 10581 10583 10586 10588 10589 10591 10592 10593 10595 10595 10596 10596 10597 10596 10597 10596 10594 10592 10594 10592 10593 10593 10593 10591 10588 10587 10584 10581 10578 10576 10572 10569 10569 10566 10563 10560 10556 10551 10545
10530 10536 10543 10548 10551 10554 10557 10561 10563 10565 10568 10571 10571 10575 10575 10577 10579 10580 10579 10581 10581 10581 10581 10581 10580 10579 10579 10576 10576 10577 10577 10576 10573 10572 10565 10564 10559 10557 10551 10546 10544 10544 10543 10540 10534 10528 10522